Weather History for West Palm Beach, FL

Change the Weather History Date:

Thursday, July 18, 2013

  Actual Average Record
Temperature  
Mean Temperature 79 °F 83 °F  
Max Temperature 84 °F 90 °F 98 °F (1981)
Min Temperature 74 °F 76 °F 64 °F (1940)
Degree Days  
Heating Degree Days 0 0  
Month to date heating degree days 0 0  
Since 1 June heating degree days 0 0  
Since 1 July heating degree days 0 0  
Cooling Degree Days 14 18  
Month to date cooling degree days 321 313  
Year to date cooling degree days 1995 1912  
Since 1 June cooling degree days 810 803  
Growing Degree Days 28 (Base 50)    
Moisture  
Dew Point 72 °F    
Average Humidity 80    
Maximum Humidity 87    
Minimum Humidity 72    
Precipitation  
Precipitation 0.57 in 0.16 in 3.35 in (1945)
Month to date precipitation 5.42 3.48  
Year to date precipitation 43.10 30.49  
Snow  
Snow 0.00 in - - ()
Month to date snowfall 0.0  
Since 1 June snowfall 0.0  
Since 1 July snowfall 0.0  
Snow Depth 0.00 in    
Sea Level Pressure  
Sea Level Pressure 30.10 in    
Wind  
Wind Speed 7 mph (SE)    
Max Wind Speed 9 mph    
Max Gust Speed 9 mph    
Visibility 9 miles    
Events Rain    
T = Trace of Precipitation, MM = Missing Value Source: NWS Daily Summary

Daily Weather History Graph

Daily Weather History Graph

Search for Another Location

Airport:

Trip Planner

Search our weather history database for the weather conditions in past years. The results will help you decide how hot, cold, wet, or windy it might be!

Date:

Astronomy

Jul. 18, 2013 Rise Set
Actual Time 6:38 AM EDT 8:14 PM EDT
Civil Twilight 6:12 AM EDT 8:40 PM EDT
Nautical Twilight 5:41 AM EDT 9:11 PM EDT
Astronomical Twilight 5:09 AM EDT 9:43 PM EDT
Moon 4:12 PM EDT 2:22 AM EDT
Length of Visible Light 14h 27m
Length of Day
13h 36m
Waxing Gibbous, 77% of the Moon is Illuminated
Jul 18
Waxing Gibbous
Jul 22
Full
Jul 29
Last Quarter
Aug 6
New
Aug 14
First Quarter

Hourly Weather History & Observations

Time (EDT) Temp. Heat Index Dew Point Humidity Pressure Visibility Wind Dir Wind Speed Gust Speed Precip Events Conditions
12:53 AM 77.0 °F - 70.9 °F 81% 30.09 in 10.0 mi SE 4.6 mph - N/A   Mostly Cloudy
1:53 AM 78.4 °F - 72.5 °F 82% 30.09 in 10.0 mi Calm Calm - N/A   Mostly Cloudy
2:33 AM 77.0 °F - 69.8 °F 78% 30.07 in 10.0 mi South 16.1 mph - N/A Rain Light Rain
2:53 AM 75.6 °F - 70.9 °F 85% 30.07 in 10.0 mi South 11.5 mph - N/A Rain Light Rain
3:53 AM 74.7 °F - 70.7 °F 87% 30.07 in 10.0 mi SSE 4.6 mph - N/A Rain Light Rain
4:53 AM 74.7 °F - 70.7 °F 87% 30.07 in 10.0 mi Calm Calm - N/A Rain Light Rain
5:53 AM 75.4 °F - 72.0 °F 89% 30.08 in 10.0 mi East 5.8 mph - N/A Rain Light Rain
6:53 AM 75.4 °F - 71.6 °F 88% 30.09 in 10.0 mi Calm Calm - N/A   Mostly Cloudy
7:53 AM 75.4 °F - 70.5 °F 85% 30.10 in 10.0 mi Calm Calm - N/A   Mostly Cloudy
8:53 AM 80.2 °F 84.9 °F 73.9 °F 81% 30.11 in 10.0 mi ESE 10.4 mph - N/A   Mostly Cloudy
9:53 AM 82.4 °F 88.7 °F 74.1 °F 76% 30.13 in 10.0 mi East 10.4 mph - N/A   Mostly Cloudy
10:53 AM 83.8 °F 92.1 °F 75.4 °F 76% 30.12 in 10.0 mi ESE 10.4 mph - N/A   Mostly Cloudy
11:08 AM 78.8 °F - 71.6 °F 78% 30.13 in 10.0 mi SE 19.6 mph - N/A   Mostly Cloudy
11:23 AM 77.0 °F - 69.8 °F 78% 30.13 in 2.0 mi SE 8.1 mph - N/A Rain Heavy Rain
11:37 AM 77.0 °F - 73.4 °F 89% 30.13 in 5.0 mi East 5.8 mph - N/A Rain Light Rain
11:53 AM 82.2 °F 90.4 °F 76.8 °F 84% 30.13 in 10.0 mi ESE 5.8 mph - N/A Rain Light Rain
12:53 PM 81.5 °F 87.2 °F 74.1 °F 78% 30.12 in 10.0 mi ESE 11.5 mph - N/A   Mostly Cloudy
1:53 PM 83.7 °F 91.0 °F 74.7 °F 74% 30.11 in 10.0 mi ESE 11.5 mph - N/A   Mostly Cloudy
2:53 PM 84.2 °F 91.9 °F 74.7 °F 73% 30.09 in 10.0 mi SE 13.8 mph - N/A   Mostly Cloudy
3:53 PM 83.5 °F 90.0 °F 73.6 °F 72% 30.08 in 10.0 mi SE 9.2 mph - N/A   Mostly Cloudy
4:53 PM 83.7 °F 91.0 °F 74.5 °F 74% 30.08 in 10.0 mi SE 10.4 mph - N/A   Mostly Cloudy
5:53 PM 83.1 °F 89.5 °F 73.8 °F 73% 30.09 in 10.0 mi WSW 18.4 mph - N/A   Mostly Cloudy
6:03 PM 83.1 °F 89.5 °F 73.8 °F 73% 30.09 in 2.0 mi West 12.7 mph - N/A Rain Rain
6:17 PM 73.4 °F - 69.8 °F 88% 30.09 in 10.0 mi West 9.2 mph - N/A Rain Light Rain
6:32 PM 73.4 °F - 69.8 °F 88% 30.09 in 10.0 mi Calm Calm - N/A   Mostly Cloudy
6:53 PM 73.4 °F - 69.6 °F 88% 30.10 in 10.0 mi Calm Calm - N/A   Mostly Cloudy
7:53 PM - - - N/A% 30.12 in - North - - N/A   Unknown
8:01 PM 75.2 °F - 69.8 °F 83% 30.11 in 10.0 mi SE 4.6 mph - N/A Rain Light Rain
8:53 PM 73.6 °F - 70.0 °F 88% 30.12 in 10.0 mi SE 4.6 mph - N/A Rain Light Rain
9:53 PM 74.3 °F - 70.5 °F 88% 30.08 in 10.0 mi SSE 4.6 mph - N/A Rain Light Rain
10:53 PM 75.0 °F - 71.6 °F 89% 30.08 in 10.0 mi NNW 4.6 mph - N/A Rain Light Rain
11:53 PM 75.4 °F - 72.1 °F 90% 30.09 in 10.0 mi Calm Calm - N/A   Overcast